Page, AZ

4:45 PM MST on February 12, 2016 (GMT -0700)
Page Municipal

Weather History for KPGA - January, 2011

Change the Weather History Date:

Monday, January 10, 2011

  Actual Average Record
Temperature  
Mean Temperature 28 °F -  
Max Temperature 33 °F 40 °F 60 °F (2000)
Min Temperature 23 °F 24 °F 12 °F (1968)
Degree Days  
Heating Degree Days 37    
Moisture  
Dew Point 7 °F    
Average Humidity 42    
Maximum Humidity 88    
Minimum Humidity 26    
Precipitation  
Precipitation 0.00 in - - ()
Sea Level Pressure  
Sea Level Pressure 30.18 in    
Wind  
Wind Speed 6 mph (NW)    
Max Wind Speed 12 mph    
Max Gust Speed 17 mph    
Visibility 10 miles    
Events Snow    
Averages and records for this station are not official NWS values.
T = Trace of Precipitation, MM = Missing Value Source: NWS Daily Summary

Daily Weather History Graph

Daily Weather History Graph

Search for Another Location

Airport or City:

Trip Planner

Search our weather history database for the weather conditions in past years. The results will help you decide how hot, cold, wet, or windy it might be!

Date:

Astronomy

Jan. 10, 2011 Rise Set
Actual Time 7:39 AM MST 5:27 PM MST
Civil Twilight 7:10 AM MST 5:56 PM MST
Nautical Twilight 6:38 AM MST 6:28 PM MST
Astronomical Twilight 6:07 AM MST 6:59 PM MST
Moon 10:46 AM MST (1/10) 11:46 PM MST (1/10)
Length of Visible Light 10h 45m
Length of Day
9h 48m
Waxing Crescent, 34% of the Moon is Illuminated
Jan 10
Waxing Crescent
Jan 12
First Quarter
Jan 19
Full
Jan 26
Last Quarter
Feb 2
New

Hourly Weather History & Observations

Time (MST) Temp. Windchill Dew Point Humidity Pressure Visibility Wind Dir Wind Speed Gust Speed Precip Events Conditions
12:53 AM 33.1 °F 24.4 °F 17.1 °F 52% 29.93 in 10.0 mi NW 11.5 mph 17.3 mph N/A   Overcast
1:53 AM 30.9 °F 25.2 °F 18.0 °F 59% 29.94 in 10.0 mi West 5.8 mph - N/A   Overcast
2:53 AM 32.0 °F 25.6 °F 10.0 °F 40% 29.97 in 10.0 mi WNW 6.9 mph - N/A   Overcast
3:53 AM 30.0 °F 24.1 °F 27.0 °F 88% 29.99 in 7.0 mi NE 5.8 mph - 0.00 in Snow Light Snow
4:20 AM 30.2 °F - 26.6 °F 86% 30.01 in 9.0 mi Calm Calm - 0.00 in Snow Light Snow
4:51 AM 28.4 °F 24.6 °F 21.2 °F 74% 30.02 in 10.0 mi Variable 3.5 mph - 0.00 in   Overcast
4:53 AM 28.9 °F 21.1 °F 21.0 °F 72% 30.02 in 10.0 mi North 8.1 mph - 0.00 in   Overcast
5:12 AM 28.4 °F 21.2 °F 5.0 °F 37% 30.03 in 10.0 mi NW 6.9 mph - N/A   Overcast
5:53 AM 27.0 °F 20.5 °F 3.9 °F 37% 30.05 in 10.0 mi WNW 5.8 mph - N/A   Scattered Clouds
6:53 AM 27.0 °F 20.5 °F 3.0 °F 36% 30.09 in 10.0 mi WNW 5.8 mph - N/A   Mostly Cloudy
7:53 AM 26.1 °F 19.4 °F 1.0 °F 34% 30.14 in 10.0 mi NW 5.8 mph - N/A   Mostly Cloudy
8:53 AM 25.0 °F 16.3 °F 1.9 °F 37% 30.19 in 10.0 mi WNW 8.1 mph - N/A   Clear
9:53 AM 27.0 °F 18.7 °F 1.0 °F 33% 30.20 in 10.0 mi WNW 8.1 mph - N/A   Clear
10:53 AM 30.0 °F 25.2 °F 1.0 °F 29% 30.22 in 10.0 mi NW 4.6 mph - N/A   Clear
11:53 AM 32.0 °F 26.4 °F 3.0 °F 29% 30.20 in 10.0 mi Variable 5.8 mph - N/A   Clear
12:53 PM 32.0 °F 26.4 °F 3.9 °F 31% 30.20 in 10.0 mi WNW 5.8 mph - N/A   Clear
1:53 PM 32.0 °F 27.5 °F 3.9 °F 31% 30.21 in 10.0 mi ESE 4.6 mph - N/A   Clear
2:53 PM 33.1 °F 28.7 °F 1.0 °F 26% 30.23 in 10.0 mi East 4.6 mph - N/A   Clear
3:53 PM 32.0 °F - -0.0 °F 26% 30.27 in 10.0 mi Calm Calm - N/A   Clear
4:53 PM 32.0 °F 27.5 °F -0.0 °F 26% 30.28 in 10.0 mi ENE 4.6 mph - N/A   Clear
5:53 PM 30.0 °F 26.5 °F 1.0 °F 29% 30.31 in 10.0 mi NE 3.5 mph - N/A   Clear
6:53 PM 27.0 °F 21.6 °F 1.9 °F 34% 30.33 in 10.0 mi SE 4.6 mph - N/A   Clear
7:53 PM 27.0 °F 23.0 °F 5.0 °F 39% 30.37 in 10.0 mi South 3.5 mph - N/A   Clear
8:53 PM 25.0 °F 19.3 °F 3.9 °F 41% 30.40 in 10.0 mi SSE 4.6 mph - N/A   Clear
9:53 PM 24.1 °F 18.2 °F 3.0 °F 40% 30.41 in 10.0 mi SSE 4.6 mph - N/A   Clear
10:53 PM 23.0 °F 15.8 °F 1.9 °F 40% 30.42 in 10.0 mi SSE 5.8 mph - N/A   Partly Cloudy
11:53 PM 23.0 °F 17.0 °F 1.0 °F 39% 30.41 in 10.0 mi SSE 4.6 mph - N/A   Clear